QPF
0.01 0.02 0.01 0.01 0.01 0.01 0.01 0.02 0.03 0.05 0.06 0.07 0.07 0.06 0.05 0.05 0.04 0.04 0.05 0.07 0.07 0.06 0.04 0.03 0.03 0.04 0.03 0.04 0.05 0.07 0.08 0.06 0.05 0.06 0.05 0.03 0.03 0.02 0.02 0.02 0.02 0.02 0.02 0.02
0.01 0.01 0.01 0.01 0.01 0.02 0.03 0.03 0.03 0.04 0.07 0.10 0.13 0.10 0.08 0.06 0.05 0.04 0.03 0.03 0.03 0.02 0.01 0.01 0.01 0.02 0.02 0.04 0.06 0.09 0.09 0.08 0.07 0.08 0.08 0.06 0.05 0.04 0.03 0.02 0.01 0.01 0.01 0.03
0.01 0.01 0.01 0.02 0.02 0.02 0.02 0.03 0.04 0.06 0.06 0.03 0.05 0.07 0.07 0.06 0.05 0.03 0.05 0.06 0.04 0.03 0.02 0.03 0.03 0.02 0.02 0.02 0.04 0.07 0.09 0.09 0.09 0.09 0.08 0.06 0.06 0.05 0.03 0.03 0.03 0.03 0.03 0.06
0.01 0.02 0.02 0.02 0.03 0.04 0.05 0.08 0.05 0.03 0.04 0.03 0.03 0.03 0.05 0.05 0.04 0.03 0.04 0.06 0.05 0.05 0.05 0.06 0.06 0.04 0.03 0.03 0.04 0.07 0.09 0.09 0.09 0.08 0.08 0.07 0.05 0.04 0.03 0.03 0.03 0.04 0.06 0.06
0.01 0.03 0.04 0.04 0.03 0.03 0.02 0.06 0.07 0.04 0.03 0.03 0.02 0.03 0.05 0.03 0.03 0.02 0.03 0.05 0.06 0.07 0.08 0.07 0.05 0.03 0.01 0.02 0.02 0.03 0.05 0.08 0.10 0.10 0.06 0.05 0.04 0.04 0.03 0.03 0.03 0.04 0.05 0.04
0.01 0.02 0.04 0.03 0.03 0.03 0.03 0.04 0.07 0.06 0.04 0.03 0.02 0.03 0.04 0.05 0.03 0.04 0.07 0.09 0.10 0.07 0.06 0.05 0.04 0.04 0.03 0.02 0.01 0.02 0.03 0.05 0.08 0.09 0.06 0.03 0.04 0.05 0.05 0.04 0.03 0.05 0.06 0.06
0.01 0.02 0.03 0.03 0.03 0.02 0.03 0.04 0.06 0.05 0.04 0.03 0.05 0.03 0.02 0.06 0.05 0.05 0.09 0.07 0.06 0.07 0.07 0.06 0.06 0.07 0.06 0.03 0.02 0.02 0.02 0.03 0.05 0.09 0.10 0.08 0.08 0.09 0.08 0.05 0.06 0.06 0.07 0.07
0.02 0.03 0.03 0.01 0.01 0.01 0.02 0.02 0.02 0.03 0.03 0.03 0.05 0.04 0.03 0.07 0.10 0.04 0.05 0.07 0.04 0.04 0.07 0.08 0.06 0.06 0.05 0.03 0.02 0.01 0.02 0.03 0.05 0.08 0.14 0.16 0.16 0.12 0.09 0.07 0.07 0.06 0.07 0.07
0.03 0.03 0.02 0.02 0.01 0.01 0.01 0.01 0.02 0.02 0.02 0.03 0.04 0.04 0.04 0.05 0.06 0.03 0.03 0.05 0.03 0.02 0.03 0.04 0.04 0.05 0.04 0.03 0.02 0.02 0.02 0.03 0.04 0.06 0.08 0.10 0.12 0.11 0.10 0.09 0.08 0.07 0.07 0.07
0.03 0.03 0.03 0.01 0.01 0.02 0.02 0.02 0.01 0.01 0.02 0.02 0.02 0.03 0.03 0.03 0.03 0.02 0.02 0.02 0.02 0.02 0.03 0.04 0.04 0.03 0.03 0.03 0.03 0.03 0.04 0.04 0.04 0.03 0.04 0.05 0.06 0.06 0.06 0.06 0.05 0.04 0.05 0.05
0.07 0.06 0.04 0.03 0.02 0.02 0.03 0.04 0.01 0.01 0.01 0.00 0.01 0.04 0.04 0.02 0.02 0.02 0.02 0.02 0.03 0.03 0.03 0.04 0.05 0.05 0.05 0.05 0.05 0.05 0.04 0.03 0.03 0.03 0.02 0.02 0.02 0.02 0.03 0.03 0.03 0.03 0.03 0.03
0.08 0.09 0.08 0.06 0.04 0.03 0.02 0.02 0.01 0.01 0.01 0.01 0.03 0.04 0.03 0.02 0.01 0.01 0.02 0.03 0.04 0.04 0.04 0.03 0.04 0.05 0.05 0.06 0.06 0.06 0.05 0.03 0.02 0.02 0.02 0.02 0.01 0.02 0.02 0.01 0.02 0.02 0.02 0.02
0.04 0.05 0.06 0.08 0.08 0.04 0.02 0.03 0.02 0.01 0.01 0.01 0.01 0.02 0.02 0.02 0.02 0.03 0.03 0.04 0.05 0.05 0.04 0.04 0.04 0.05 0.04 0.05 0.06 0.06 0.05 0.03 0.02 0.01 0.02 0.02 0.01 0.01 0.01 0.01 0.01 0.01 0.01 0.01
0.04 0.03 0.03 0.05 0.06 0.05 0.02 0.03 0.04 0.02 0.01 0.01 0.01 0.02 0.03 0.04 0.04 0.04 0.04 0.05 0.06 0.07 0.06 0.05 0.05 0.05 0.04 0.05 0.05 0.05 0.05 0.05 0.03 0.03 0.02 0.02 0.01 0.01 0.01 0.01 0.02 0.01 0.01 0.01
0.04 0.02 0.01 0.01 0.04 0.10 0.07 0.05 0.06 0.04 0.02 0.02 0.02 0.02 0.04 0.06 0.05 0.04 0.04 0.05 0.07 0.08 0.09 0.09 0.07 0.05 0.03 0.04 0.04 0.04 0.04 0.04 0.04 0.03 0.03 0.03 0.03 0.03 0.04 0.05 0.05 0.03 0.01 0.01
0.04 0.02 0.02 0.02 0.03 0.05 0.06 0.05 0.06 0.03 0.03 0.03 0.04 0.04 0.04 0.03 0.04 0.05 0.06 0.07 0.08 0.09 0.11 0.18 0.14 0.07 0.05 0.04 0.04 0.05 0.05 0.05 0.05 0.05 0.05 0.05 0.04 0.03 0.04 0.05 0.04 0.04 0.02 0.02
0.05 0.04 0.03 0.03 0.06 0.08 0.07 0.06 0.06 0.03 0.02 0.02 0.02 0.02 0.01 0.01 0.01 0.02 0.03 0.04 0.04 0.04 0.05 0.06 0.08 0.06 0.04 0.04 0.05 0.07 0.07 0.07 0.07 0.05 0.04 0.04 0.03 0.03 0.02 0.03 0.03 0.03 0.03 0.04
0.05 0.05 0.04 0.03 0.07 0.11 0.11 0.08 0.06 0.04 0.03 0.02 0.02 0.02 0.02 0.01 0.01 0.01 0.01 0.02 0.02 0.03 0.04 0.04 0.05 0.05 0.05 0.05 0.05 0.09 0.09 0.08 0.06 0.04 0.03 0.04 0.03 0.03 0.02 0.03 0.04 0.04 0.03 0.03
0.05 0.04 0.03 0.03 0.08 0.12 0.14 0.11 0.07 0.05 0.04 0.03 0.03 0.02 0.02 0.01 0.01 0.02 0.02 0.02 0.03 0.03 0.03 0.02 0.03 0.03 0.03 0.02 0.03 0.08 0.09 0.08 0.07 0.06 0.04 0.05 0.05 0.03 0.03 0.03 0.04 0.04 0.03 0.02
0.04 0.04 0.04 0.04 0.07 0.10 0.13 0.14 0.10 0.06 0.04 0.04 0.03 0.03 0.02 0.01 0.02 0.03 0.03 0.03 0.03 0.02 0.01 0.01 0.03 0.07 0.06 0.03 0.03 0.05 0.08 0.10 0.09 0.07 0.06 0.05 0.05 0.04 0.04 0.04 0.03 0.02 0.02 0.01
0.02 0.02 0.03 0.04 0.06 0.07 0.07 0.10 0.11 0.07 0.05 0.04 0.03 0.03 0.02 0.02 0.02 0.02 0.02 0.01 0.01 0.01 0.01 0.02 0.03 0.09 0.10 0.06 0.05 0.06 0.10 0.12 0.10 0.09 0.07 0.05 0.04 0.03 0.03 0.03 0.03 0.03 0.03 0.02
0.01 0.01 0.02 0.04 0.07 0.06 0.06 0.07 0.09 0.08 0.06 0.04 0.03 0.02 0.02 0.02 0.02 0.02 0.01 0.01 0.01 0.01 0.02 0.02 0.04 0.10 0.13 0.08 0.07 0.06 0.10 0.11 0.09 0.10 0.08 0.06 0.04 0.02 0.02 0.02 0.02 0.02 0.02 0.02
0.02 0.02 0.02 0.05 0.06 0.06 0.05 0.06 0.05 0.04 0.04 0.04 0.03 0.02 0.01 0.01 0.01 0.01 0.01 0.00 0.01 0.01 0.01 0.02 0.05 0.13 0.14 0.09 0.06 0.06 0.08 0.09 0.09 0.11 0.09 0.06 0.03 0.02 0.02 0.02 0.01 0.02 0.02 0.01
0.03 0.03 0.03 0.04 0.05 0.05 0.05 0.05 0.04 0.04 0.03 0.03 0.04 0.03 0.02 0.01 0.01 0.01 0.01 0.01 0.01 0.01 0.01 0.02 0.04 0.10 0.13 0.08 0.05 0.04 0.05 0.06 0.06 0.08 0.07 0.04 0.03 0.03 0.02 0.01 0.01 0.01 0.01 0.01
0.04 0.04 0.05 0.06 0.07 0.06 0.06 0.05 0.04 0.03 0.02 0.02 0.02 0.02 0.01 0.01 0.00 0.00 0.00 0.01 0.01 0.02 0.01 0.02 0.04 0.08 0.10 0.07 0.05 0.03 0.04 0.04 0.04 0.04 0.04 0.03 0.02 0.02 0.02 0.01 0.01 0.01 0.01 0.01
0.05 0.05 0.06 0.07 0.07 0.08 0.07 0.05 0.04 0.03 0.03 0.03 0.02 0.01 0.01 0.01 0.01 0.01 0.01 0.01 0.02 0.02 0.02 0.02 0.05 0.07 0.08 0.07 0.06 0.05 0.04 0.03 0.04 0.03 0.03 0.02 0.02 0.02 0.02 0.01 0.01 0.01 0.01 0.01
0.04 0.05 0.05 0.05 0.05 0.05 0.05 0.04 0.05 0.05 0.03 0.03 0.02 0.01 0.02 0.02 0.01 0.01 0.01 0.02 0.03 0.02 0.02 0.02 0.04 0.06 0.07 0.07 0.07 0.05 0.04 0.04 0.04 0.03 0.03 0.02 0.02 0.02 0.02 0.01 0.02 0.01 0.01 0.01
MSLP
1004.10 1004.04 1004.10 1004.27 1004.55 1004.90 1005.25 1005.56 1005.74 1005.75 1005.57 1005.21 1004.69 1004.07 1003.44 1002.86 1002.41 1002.13 1002.03 1002.13 1002.39 1002.78 1003.25 1003.78 1004.32 1004.86 1005.38 1005.89 1006.39 1006.87 1007.35 1007.80 1008.23 1008.63 1008.99 1009.29 1009.55 1009.75 1009.92 1010.05 1010.17 1010.27 1010.36 1010.45
1004.24 1003.98 1003.74 1003.54 1003.40 1003.34 1003.34 1003.38 1003.42 1003.42 1003.37 1003.23 1003.00 1002.70 1002.36 1002.02 1001.70 1001.46 1001.32 1001.30 1001.40 1001.63 1001.97 1002.40 1002.90 1003.46 1004.04 1004.65 1005.25 1005.83 1006.38 1006.89 1007.35 1007.76 1008.11 1008.41 1008.67 1008.90 1009.09 1009.27 1009.43 1009.58 1009.73 1009.88
1004.54 1004.09 1003.56 1003.02 1002.50 1002.05 1001.71 1001.48 1001.36 1001.33 1001.34 1001.37 1001.37 1001.33 1001.23 1001.07 1000.87 1000.67 1000.48 1000.36 1000.33 1000.41 1000.62 1000.97 1001.44 1002.01 1002.66 1003.35 1004.05 1004.73 1005.37 1005.94 1006.43 1006.86 1007.22 1007.52 1007.79 1008.03 1008.26 1008.48 1008.70 1008.92 1009.13 1009.33
1004.88 1004.25 1003.49 1002.65 1001.81 1001.04 1000.40 999.93 999.65 999.55 999.59 999.72 999.89 1000.03 1000.11 1000.10 999.99 999.81 999.60 999.40 999.26 999.24 999.36 999.64 1000.08 1000.67 1001.38 1002.15 1002.94 1003.70 1004.41 1005.04 1005.57 1006.02 1006.39 1006.70 1006.98 1007.25 1007.52 1007.79 1008.06 1008.34 1008.62 1008.88
1005.09 1004.32 1003.38 1002.32 1001.24 1000.22 999.34 998.68 998.27 998.09 998.12 998.31 998.58 998.85 999.06 999.16 999.13 999.00 998.78 998.54 998.35 998.26 998.33 998.58 999.01 999.62 1000.36 1001.19 1002.05 1002.88 1003.64 1004.31 1004.87 1005.33 1005.72 1006.04 1006.34 1006.64 1006.95 1007.27 1007.61 1007.95 1008.29 1008.62
1005.03 1004.14 1003.06 1001.86 1000.61 999.43 998.41 997.62 997.10 996.87 996.89 997.11 997.45 997.81 998.12 998.32 998.38 998.31 998.13 997.91 997.72 997.62 997.67 997.92 998.36 998.98 999.75 1000.61 1001.50 1002.37 1003.16 1003.84 1004.42 1004.89 1005.29 1005.63 1005.95 1006.27 1006.62 1006.99 1007.38 1007.79 1008.19 1008.57
1004.60 1003.62 1002.45 1001.16 999.83 998.57 997.47 996.62 996.06 995.80 995.83 996.07 996.47 996.91 997.31 997.62 997.79 997.81 997.72 997.58 997.44 997.39 997.47 997.74 998.19 998.83 999.60 1000.47 1001.37 1002.23 1003.02 1003.70 1004.28 1004.75 1005.14 1005.49 1005.83 1006.18 1006.55 1006.97 1007.41 1007.86 1008.31 1008.73
1003.83 1002.76 1001.53 1000.20 998.85 997.58 996.47 995.62 995.06 994.81 994.86 995.15 995.61 996.14 996.65 997.08 997.38 997.54 997.59 997.57 997.54 997.57 997.72 998.03 998.51 999.15 999.91 1000.76 1001.63 1002.46 1003.22 1003.88 1004.43 1004.88 1005.27 1005.62 1005.96 1006.33 1006.73 1007.16 1007.63 1008.11 1008.59 1009.04
1002.81 1001.66 1000.39 999.06 997.73 996.48 995.42 994.60 994.08 993.88 993.98 994.33 994.86 995.49 996.12 996.69 997.15 997.49 997.71 997.85 997.97 998.12 998.35 998.71 999.21 999.84 1000.58 1001.38 1002.19 1002.97 1003.68 1004.29 1004.81 1005.24 1005.61 1005.95 1006.29 1006.65 1007.06 1007.50 1007.97 1008.46 1008.94 1009.39
1001.71 1000.50 999.21 997.88 996.58 995.40 994.40 993.64 993.18 993.04 993.20 993.62 994.23 994.96 995.73 996.45 997.09 997.62 998.03 998.35 998.63 998.91 999.23 999.65 1000.16 1000.77 1001.46 1002.20 1002.94 1003.64 1004.28 1004.84 1005.32 1005.71 1006.06 1006.38 1006.71 1007.06 1007.44 1007.87 1008.32 1008.79 1009.25 1009.68
1000.73 999.47 998.16 996.85 995.60 994.47 993.53 992.85 992.45 992.36 992.57 993.06 993.76 994.59 995.48 996.35 997.16 997.87 998.47 998.97 999.40 999.80 1000.21 1000.67 1001.18 1001.76 1002.39 1003.05 1003.71 1004.34 1004.91 1005.41 1005.84 1006.21 1006.53 1006.82 1007.13 1007.45 1007.80 1008.19 1008.61 1009.03 1009.45 1009.84
1000.00 998.72 997.42 996.14 994.93 993.86 992.97 992.34 991.98 991.93 992.19 992.72 993.48 994.39 995.38 996.38 997.34 998.21 998.97 999.62 1000.18 1000.68 1001.16 1001.63 1002.13 1002.67 1003.23 1003.81 1004.39 1004.94 1005.45 1005.90 1006.29 1006.63 1006.93 1007.20 1007.48 1007.77 1008.08 1008.41 1008.77 1009.14 1009.50 1009.84
999.56 998.30 997.04 995.80 994.65 993.63 992.79 992.18 991.86 991.83 992.10 992.65 993.44 994.40 995.46 996.56 997.62 998.61 999.49 1000.25 1000.90 1001.47 1001.97 1002.45 1002.92 1003.40 1003.89 1004.40 1004.90 1005.39 1005.85 1006.26 1006.63 1006.96 1007.24 1007.50 1007.75 1008.01 1008.27 1008.55 1008.85 1009.15 1009.45 1009.73
999.33 998.15 996.97 995.82 994.73 993.77 992.98 992.41 992.10 992.07 992.35 992.89 993.69 994.66 995.75 996.89 998.02 999.07 1000.02 1000.84 1001.54 1002.14 1002.64 1003.10 1003.52 1003.94 1004.37 1004.81 1005.25 1005.70 1006.12 1006.52 1006.88 1007.21 1007.49 1007.75 1007.99 1008.21 1008.44 1008.67 1008.90 1009.14 1009.37 1009.59
999.18 998.14 997.09 996.06 995.09 994.21 993.48 992.95 992.66 992.64 992.90 993.44 994.22 995.18 996.27 997.41 998.55 999.62 1000.59 1001.43 1002.14 1002.72 1003.20 1003.61 1003.99 1004.35 1004.71 1005.09 1005.50 1005.91 1006.32 1006.72 1007.09 1007.43 1007.74 1008.00 1008.23 1008.44 1008.64 1008.83 1009.01 1009.19 1009.37 1009.53
998.95 998.12 997.26 996.40 995.57 994.82 994.19 993.73 993.48 993.48 993.74 994.26 995.01 995.95 997.01 998.13 999.24 1000.30 1001.24 1002.06 1002.73 1003.27 1003.71 1004.07 1004.38 1004.69 1005.00 1005.34 1005.71 1006.11 1006.53 1006.94 1007.34 1007.70 1008.03 1008.32 1008.56 1008.76 1008.94 1009.09 1009.24 1009.37 1009.50 1009.62
998.56 997.97 997.35 996.71 996.07 995.49 994.99 994.64 994.47 994.51 994.80 995.32 996.05 996.95 997.97 999.04 1000.11 1001.11 1002.01 1002.77 1003.38 1003.87 1004.24 1004.54 1004.80 1005.05 1005.32 1005.64 1005.99 1006.39 1006.81 1007.25 1007.68 1008.08 1008.43 1008.74 1008.99 1009.20 1009.37 1009.50 1009.61 1009.71 1009.80 1009.87
997.99 997.67 997.31 996.92 996.51 996.13 995.81 995.60 995.54 995.67 996.00 996.54 997.27 998.14 999.12 1000.14 1001.14 1002.07 1002.90 1003.59 1004.13 1004.55 1004.86 1005.10 1005.31 1005.52 1005.76 1006.05 1006.40 1006.80 1007.24 1007.70 1008.15 1008.57 1008.96 1009.28 1009.55 1009.75 1009.91 1010.03 1010.11 1010.17 1010.22 1010.25
997.34 997.29 997.19 997.06 996.90 996.74 996.62 996.58 996.66 996.90 997.30 997.88 998.61 999.47 1000.41 1001.37 1002.31 1003.16 1003.91 1004.52 1004.99 1005.34 1005.59 1005.78 1005.95 1006.13 1006.35 1006.63 1006.97 1007.38 1007.82 1008.29 1008.76 1009.20 1009.59 1009.92 1010.18 1010.38 1010.52 1010.60 1010.66 1010.68 1010.69 1010.67
996.80 996.98 997.12 997.23 997.30 997.36 997.44 997.58 997.81 998.16 998.65 999.28 1000.04 1000.89 1001.79 1002.69 1003.55 1004.33 1005.00 1005.53 1005.94 1006.23 1006.43 1006.59 1006.72 1006.88 1007.09 1007.36 1007.70 1008.10 1008.55 1009.02 1009.48 1009.91 1010.28 1010.59 1010.83 1011.00 1011.11 1011.16 1011.17 1011.15 1011.10 1011.03
996.56 996.92 997.25 997.55 997.82 998.07 998.33 998.63 999.00 999.47 1000.04 1000.72 1001.49 1002.32 1003.19 1004.03 1004.82 1005.53 1006.12 1006.59 1006.93 1007.17 1007.34 1007.47 1007.60 1007.75 1007.95 1008.22 1008.55 1008.95 1009.38 1009.82 1010.25 1010.65 1010.99 1011.25 1011.45 1011.56 1011.61 1011.61 1011.56 1011.48 1011.37 1011.24
996.75 997.24 997.70 998.14 998.55 998.94 999.34 999.77 1000.25 1000.80 1001.44 1002.15 1002.93 1003.74 1004.56 1005.35 1006.07 1006.70 1007.22 1007.62 1007.92 1008.13 1008.28 1008.39 1008.52 1008.67 1008.88 1009.15 1009.47 1009.85 1010.25 1010.66 1011.04 1011.38 1011.65 1011.85 1011.97 1012.01 1011.99 1011.91 1011.79 1011.64 1011.46 1011.26
997.45 997.99 998.52 999.04 999.53 1000.01 1000.50 1001.01 1001.57 1002.18 1002.85 1003.57 1004.33 1005.11 1005.88 1006.60 1007.25 1007.80 1008.26 1008.61 1008.87 1009.05 1009.19 1009.31 1009.45 1009.61 1009.82 1010.09 1010.41 1010.76 1011.12 1011.47 1011.79 1012.06 1012.25 1012.36 1012.38 1012.34 1012.22 1012.06 1011.86 1011.62 1011.37 1011.11
998.57 999.13 999.67 1000.21 1000.74 1001.26 1001.79 1002.35 1002.94 1003.57 1004.25 1004.96 1005.69 1006.42 1007.12 1007.77 1008.34 1008.83 1009.22 1009.53 1009.75 1009.92 1010.06 1010.19 1010.34 1010.52 1010.75 1011.01 1011.31 1011.63 1011.95 1012.24 1012.48 1012.65 1012.74 1012.75 1012.68 1012.53 1012.33 1012.07 1011.79 1011.48 1011.16 1010.83
999.99 1000.52 1001.05 1001.58 1002.10 1002.63 1003.17 1003.74 1004.34 1004.97 1005.63 1006.31 1006.99 1007.65 1008.28 1008.86 1009.36 1009.78 1010.11 1010.37 1010.58 1010.74 1010.88 1011.02 1011.18 1011.38 1011.61 1011.87 1012.15 1012.43 1012.69 1012.91 1013.07 1013.14 1013.14 1013.04 1012.87 1012.63 1012.33 1011.99 1011.63 1011.25 1010.87 1010.49
1001.52 1002.01 1002.51 1003.01 1003.52 1004.04 1004.57 1005.13 1005.72 1006.33 1006.97 1007.60 1008.23 1008.83 1009.39 1009.88 1010.31 1010.66 1010.95 1011.17 1011.34 1011.49 1011.64 1011.79 1011.96 1012.16 1012.39 1012.64 1012.90 1013.13 1013.33 1013.48 1013.54 1013.53 1013.43 1013.24 1012.97 1012.63 1012.25 1011.84 1011.41 1010.98 1010.56 1010.14
1002.98 1003.45 1003.92 1004.40 1004.89 1005.40 1005.93 1006.48 1007.06 1007.65 1008.25 1008.85 1009.42 1009.96 1010.45 1010.87 1011.23 1011.52 1011.75 1011.93 1012.08 1012.21 1012.35 1012.50 1012.67 1012.87 1013.09 1013.31 1013.53 1013.71 1013.85 1013.92 1013.90 1013.80 1013.61 1013.33 1012.98 1012.57 1012.12 1011.66 1011.18 1010.71 1010.26 1009.82
Thickness
5781 5792 5796 5794 5795 5796 5786 5779 5769 5773 5777 5789 5798 5803 5806 5809 5809 5806 5804 5803 5803 5802 5802 5802 5800 5798 5796 5793 5791 5788 5783 5779 5774 5772 5769 5767 5764 5763 5761 5759 5757 5755 5752 5750
5774 5788 5790 5787 5791 5793 5792 5790 5783 5782 5781 5798 5801 5802 5802 5803 5804 5802 5801 5802 5802 5801 5799 5797 5796 5794 5791 5789 5787 5784 5779 5774 5771 5768 5765 5762 5760 5758 5756 5753 5751 5750 5747 5745
5751 5770 5773 5762 5781 5785 5785 5791 5787 5776 5785 5796 5793 5794 5795 5797 5798 5797 5797 5798 5797 5797 5796 5794 5792 5790 5787 5785 5782 5778 5774 5770 5767 5764 5761 5759 5757 5754 5751 5748 5746 5744 5742 5740
5741 5750 5735 5762 5791 5794 5787 5788 5791 5791 5792 5796 5795 5796 5797 5798 5795 5794 5794 5792 5792 5793 5793 5792 5790 5787 5785 5781 5777 5772 5769 5766 5763 5761 5758 5756 5753 5749 5747 5744 5741 5739 5737 5735
5727 5726 5736 5764 5783 5787 5779 5772 5787 5786 5788 5791 5793 5788 5786 5794 5795 5793 5791 5789 5789 5791 5790 5788 5785 5782 5778 5774 5770 5766 5763 5761 5760 5757 5754 5751 5748 5745 5743 5740 5737 5735 5733 5730
5723 5721 5720 5751 5783 5795 5781 5758 5782 5785 5783 5784 5782 5764 5770 5788 5790 5789 5787 5786 5784 5785 5784 5781 5779 5776 5771 5766 5763 5760 5758 5757 5755 5753 5751 5747 5745 5742 5739 5736 5732 5730 5727 5725
5717 5717 5729 5761 5781 5783 5748 5750 5778 5782 5781 5779 5773 5773 5779 5785 5784 5783 5781 5780 5780 5778 5775 5773 5772 5769 5763 5760 5757 5758 5756 5753 5750 5748 5746 5743 5740 5737 5733 5730 5726 5723 5720 5718
5711 5709 5720 5763 5768 5758 5756 5770 5775 5778 5777 5775 5774 5775 5777 5778 5776 5774 5773 5773 5772 5768 5766 5766 5765 5762 5757 5754 5754 5752 5750 5746 5744 5741 5740 5737 5733 5730 5727 5723 5719 5715 5712 5709
5717 5721 5742 5757 5759 5764 5767 5765 5768 5770 5773 5772 5769 5766 5768 5767 5766 5766 5765 5764 5763 5761 5758 5757 5756 5754 5750 5748 5747 5745 5742 5739 5737 5735 5732 5729 5725 5722 5718 5715 5711 5707 5703 5700
5716 5726 5739 5748 5753 5758 5761 5760 5763 5765 5767 5764 5760 5760 5760 5759 5758 5756 5755 5754 5753 5750 5747 5745 5746 5745 5744 5741 5739 5736 5733 5731 5728 5726 5722 5720 5717 5714 5710 5706 5703 5700 5696 5693
5707 5718 5728 5736 5741 5746 5750 5754 5756 5757 5758 5757 5755 5752 5751 5749 5749 5748 5746 5745 5744 5740 5737 5736 5736 5735 5735 5733 5730 5726 5724 5721 5719 5717 5713 5710 5707 5704 5702 5700 5698 5694 5691 5688
5697 5711 5713 5719 5732 5740 5741 5743 5745 5746 5745 5746 5746 5744 5742 5741 5740 5739 5737 5735 5732 5731 5729 5727 5726 5725 5725 5724 5722 5718 5715 5713 5710 5708 5705 5702 5699 5695 5694 5693 5691 5689 5687 5683
5704 5712 5715 5719 5725 5730 5733 5736 5737 5737 5737 5736 5737 5737 5734 5731 5730 5729 5728 5726 5724 5723 5721 5720 5718 5716 5716 5716 5713 5710 5707 5705 5703 5701 5699 5695 5692 5688 5684 5683 5682 5680 5678 5676
5702 5705 5704 5709 5713 5720 5724 5727 5728 5728 5728 5729 5728 5728 5725 5722 5720 5719 5718 5718 5717 5715 5712 5710 5708 5707 5707 5706 5704 5702 5700 5698 5696 5694 5692 5689 5686 5682 5679 5675 5673 5671 5669 5667
5694 5698 5698 5702 5706 5707 5712 5715 5714 5713 5716 5718 5718 5717 5716 5713 5711 5710 5709 5709 5707 5704 5701 5700 5697 5696 5697 5697 5695 5694 5692 5691 5689 5688 5685 5683 5680 5676 5673 5670 5667 5664 5661 5659
5684 5689 5692 5693 5694 5696 5700 5701 5700 5701 5704 5706 5705 5705 5706 5705 5703 5701 5700 5699 5696 5693 5692 5690 5688 5688 5688 5687 5686 5685 5684 5684 5683 5681 5678 5675 5673 5669 5666 5663 5660 5657 5655 5652
5671 5672 5676 5679 5682 5685 5688 5690 5691 5692 5693 5693 5694 5695 5695 5694 5692 5690 5689 5688 5686 5684 5683 5682 5680 5681 5680 5679 5678 5677 5676 5676 5676 5674 5672 5669 5666 5663 5661 5658 5655 5652 5650 5648
5668 5669 5671 5672 5674 5677 5679 5681 5682 5684 5684 5686 5686 5685 5684 5682 5680 5679 5678 5678 5676 5674 5674 5673 5673 5673 5672 5672 5672 5671 5670 5669 5668 5667 5665 5663 5661 5658 5655 5652 5649 5646 5643 5641
5661 5662 5665 5668 5670 5671 5672 5673 5674 5676 5677 5677 5676 5675 5674 5673 5672 5671 5670 5668 5665 5663 5664 5665 5664 5664 5664 5664 5664 5663 5662 5661 5660 5659 5658 5656 5654 5651 5648 5645 5642 5640 5637 5634
5654 5656 5658 5660 5663 5663 5663 5665 5666 5666 5667 5668 5667 5666 5665 5664 5663 5662 5660 5658 5657 5656 5656 5656 5656 5655 5655 5656 5656 5655 5654 5654 5652 5651 5650 5648 5646 5644 5642 5639 5636 5634 5631 5628
5647 5649 5651 5652 5654 5656 5657 5657 5657 5657 5659 5659 5658 5657 5655 5654 5654 5652 5650 5648 5649 5650 5649 5649 5648 5647 5648 5648 5648 5647 5646 5646 5644 5643 5642 5640 5639 5637 5634 5632 5630 5627 5625 5622
5639 5642 5644 5645 5646 5647 5649 5650 5651 5652 5651 5651 5650 5649 5647 5645 5644 5643 5642 5642 5643 5643 5642 5641 5640 5641 5641 5641 5641 5640 5639 5638 5636 5635 5634 5633 5631 5628 5626 5625 5622 5620 5618 5615
5633 5635 5637 5639 5640 5641 5643 5643 5644 5644 5643 5642 5641 5640 5639 5638 5636 5635 5634 5636 5636 5635 5635 5634 5634 5634 5634 5633 5632 5631 5630 5629 5628 5626 5625 5624 5622 5620 5619 5617 5615 5613 5610 5608
5628 5630 5632 5634 5635 5635 5634 5635 5637 5637 5636 5636 5635 5635 5633 5631 5630 5631 5631 5631 5631 5629 5628 5627 5627 5626 5625 5624 5623 5622 5621 5620 5619 5618 5616 5614 5613 5612 5610 5609 5606 5604 5602 5600
5623 5625 5626 5627 5627 5628 5628 5629 5629 5629 5629 5628 5628 5628 5628 5627 5625 5625 5625 5625 5624 5623 5621 5621 5620 5619 5617 5616 5615 5614 5613 5612 5611 5610 5608 5606 5604 5603 5602 5600 5598 5596 5594 5592
5619 5619 5620 5622 5622 5622 5622 5622 5621 5621 5621 5620 5619 5620 5620 5619 5619 5618 5617 5616 5616 5615 5614 5613 5612 5611 5610 5610 5609 5608 5606 5605 5603 5602 5600 5598 5597 5595 5594 5592 5591 5589 5586 5584
5613 5614 5615 5616 5617 5617 5617 5616 5615 5615 5614 5613 5612 5612 5612 5611 5610 5610 5609 5608 5607 5606 5605 5605 5604 5604 5603 5602 5601 5599 5598 5597 5596 5594 5592 5590 5588 5587 5585 5584 5582 5581 5579 5577